IZ2NAI-3 Weather Reports


time (UTC)temp
C
wind
direction
speed
KPH
gust
KPH
rain 1hr
cm
rain 24hr
cm
rain mn
cm
humidity
%
barometer
mb
20260507055005 13 196 1.6 4.8 0.00 0.30 0.03 95 1012.6
20260507054505 13 198 0.0 3.2 0.00 0.30 0.03 95 1012.6
20260507053505 12 189 3.2 4.8 0.00 0.30 0.03 95 1012.4
20260507053006 12 184 1.6 4.8 0.00 0.30 0.03 95 1012.4
20260507051505 11 117 0.0 4.8 0.00 0.33 0.03 95 1012.3
20260507051005 11 113 0.0 4.8 0.00 0.33 0.03 95 1012.1
20260507050006 11 0 0.0 0.0 0.00 0.33 0.03 95 1012.1
20260507045505 11 0 0.0 0.0 0.00 0.33 0.03 95 1012.0
20260507045005 10 0 0.0 0.0 0.00 0.33 0.03 95 1011.9
20260507044506 10 0 0.0 0.0 0.00 0.33 0.03 95 1011.9
20260507044005 10 0 0.0 0.0 0.00 0.33 0.03 95 1011.8
20260507043505 10 0 0.0 0.0 0.00 0.36 0.03 95 1011.8
20260507042505 10 0 0.0 0.0 0.00 0.38 0.03 95 1011.7
20260507041505 10 0 0.0 0.0 0.00 0.38 0.03 95 1011.6
20260507041005 10 0 0.0 0.0 0.00 0.41 0.03 95 1011.7
20260507040505 10 0 0.0 0.0 0.00 0.41 0.03 95 1011.5
20260507040005 10 0 0.0 0.0 0.00 0.41 0.03 95 1011.6
20260507035505 10 0 0.0 0.0 0.00 0.41 0.03 95 1011.5
20260507035005 10 0 0.0 0.0 0.00 0.43 0.03 95 1011.5
20260507034506 10 18 0.0 3.2 0.00 0.43 0.03 95 1011.5
20260507033505 10 14 0.0 4.8 0.00 0.43 0.03 95 1011.6
20260507033005 10 0 0.0 0.0 0.00 0.46 0.03 95 1011.5
20260507032506 10 0 0.0 0.0 0.00 0.46 0.03 95 1011.6
20260507032005 10 0 0.0 0.0 0.00 0.46 0.03 95 1011.4
20260507031505 10 0 0.0 0.0 0.00 0.46 0.03 95 1011.4
20260507031005 10 0 0.0 0.0 0.00 0.48 0.03 95 1011.4
20260507030506 10 0 0.0 0.0 0.00 0.48 0.03 95 1011.5
20260507030006 11 0 0.0 0.0 0.00 0.48 0.03 95 1011.6
20260507025505 11 0 0.0 0.0 0.00 0.48 0.03 95 1011.4
20260507025006 11 0 0.0 0.0 0.00 0.48 0.03 95 1011.4
20260507024506 11 0 0.0 0.0 0.00 0.48 0.03 95 1011.4
20260507024006 11 0 0.0 0.0 0.00 0.48 0.03 95 1011.4
20260507023505 11 0 0.0 0.0 0.00 0.51 0.03 95 1011.3
20260507022505 12 0 0.0 0.0 0.00 0.51 0.03 95 1011.6
20260507022005 11 0 0.0 0.0 0.00 0.51 0.03 95 1011.5
20260507021505 11 358 1.6 4.8 0.00 0.51 0.03 95 1011.4
20260507021005 11 11 1.6 4.8 0.00 0.51 0.03 95 1011.6
20260507020505 11 19 0.0 4.8 0.00 0.51 0.03 94 1011.5
20260507020005 12 0 0.0 0.0 0.00 0.51 0.03 94 1011.5
20260507014506 12 108 0.0 3.2 0.00 0.51 0.03 95 1011.5
20260507013505 13 85 1.6 4.8 0.00 0.51 0.03 95 1011.4
20260507013005 13 88 1.6 6.4 0.03 0.51 0.03 95 1011.3
20260507012506 13 89 1.6 6.4 0.03 0.51 0.03 94 1011.3
20260507010506 12 59 1.6 4.8 0.03 0.51 0.03 94 1011.2
20260507010005 12 33 1.6 4.8 0.03 0.51 0.03 94 1011.3
20260507005505 12 28 1.6 4.8 0.03 0.51 0.03 94 1011.2
20260507005006 12 36 0.0 4.8 0.03 0.51 0.03 94 1011.3
20260507004005 12 28 1.6 4.8 0.03 0.51 0.03 94 1011.2
20260507003505 13 35 0.0 4.8 0.03 0.51 0.03 94 1011.1
20260507002506 13 354 1.6 6.4 0.00 0.48 0.00 94 1011.0
20260507002006 13 1 1.6 6.4 0.00 0.48 0.00 94 1011.1
20260507001506 13 11 1.6 3.2 0.00 0.48 0.00 94 1011.2
20260507001005 13 8 3.2 6.4 0.00 0.48 0.00 94 1011.1
20260507000505 13 9 3.2 6.4 0.00 0.48 0.00 94 1011.2
20260507000005 13 15 1.6 4.8 0.00 0.48 0.00 94 1011.2
20260506235505 13 0 0.0 0.0 0.00 0.48 0.00 94 1011.2
20260506234006 13 0 0.0 0.0 0.00 0.48 0.00 94 1011.1
20260506233505 13 0 0.0 0.0 0.00 0.48 0.00 94 1011.1
20260506233005 13 0 0.0 0.0 0.00 0.48 0.00 94 1011.1
20260506232005 14 0 0.0 0.0 0.00 0.48 0.00 94 1011.1
20260506231505 14 0 0.0 0.0 0.00 0.48 0.00 94 1011.3
20260506231005 14 0 0.0 0.0 0.00 0.48 0.00 94 1011.0
20260506230505 14 0 0.0 0.0 0.00 0.48 0.00 94 1010.9
20260506230005 14 0 0.0 0.0 0.00 0.48 0.00 94 1011.0
20260506225505 14 0 0.0 0.0 0.00 0.48 0.00 93 1011.0
20260506225005 14 0 0.0 0.0 0.00 0.48 0.00 93 1011.0
20260506224505 14 0 0.0 0.0 0.00 0.48 0.00 93 1011.0
20260506224006 14 0 0.0 0.0 0.00 0.48 0.00 94 1011.0
20260506223505 14 6 0.0 1.6 0.00 0.48 0.00 93 1011.0
20260506222005 15 67 1.6 4.8 0.00 0.51 0.00 93 1011.1
20260506221505 15 221 0.0 3.2 0.00 0.51 0.00 93 1011.0
20260506221006 15 222 0.0 3.2 0.00 0.51 0.00 93 1011.1
20260506220505 15 211 1.6 4.8 0.00 0.51 0.00 93 1011.0
20260506220008 15 101 4.8 8.0 0.00 0.51 0.00 93 1011.1
20260506215006 15 62 0.0 6.4 0.00 0.51 0.51 93 1011.0
20260506214505 15 0 0.0 0.0 0.00 0.51 0.51 93 1011.1
20260506214005 15 0 0.0 0.0 0.00 0.51 0.51 93 1011.1
20260506213505 15 30 0.0 3.2 0.00 0.51 0.51 93 1011.0
20260506212506 15 41 1.6 4.8 0.00 0.51 0.51 93 1011.0
20260506212005 15 41 3.2 6.4 0.00 0.51 0.51 93 1011.1
20260506210505 16 25 0.0 4.8 0.00 0.51 0.51 93 1011.1
20260506210006 16 88 3.2 14.5 0.00 0.51 0.51 93 1010.9
20260506205505 16 88 6.4 14.5 0.00 0.51 0.51 93 1010.8
20260506205005 16 90 3.2 14.5 0.00 0.51 0.51 93 1010.8
20260506204505 16 219 1.6 4.8 0.00 0.51 0.51 93 1010.7
20260506204006 16 89 3.2 8.0 0.00 0.51 0.51 93 1010.7
20260506203506 16 61 4.8 8.0 0.00 0.51 0.51 93 1010.5
20260506203005 16 29 3.2 8.0 0.00 0.51 0.51 93 1010.5
20260506202505 16 284 3.2 4.8 0.00 0.51 0.51 93 1010.5
20260506201506 16 55 3.2 4.8 0.00 0.51 0.51 93 1010.4
20260506201006 16 72 3.2 6.4 0.00 0.51 0.51 93 1010.3
20260506200505 16 72 4.8 8.0 0.00 0.51 0.51 93 1010.2
20260506200005 16 67 6.4 8.0 0.00 0.51 0.51 93 1010.1
20260506195506 16 56 4.8 8.0 0.00 0.51 0.51 93 1010.1
20260506195005 16 40 3.2 6.4 0.00 0.51 0.51 93 1010.1
20260506194505 16 41 4.8 8.0 0.00 0.51 0.51 93 1010.0
20260506194005 16 47 8.0 14.5 0.00 0.51 0.51 92 1010.1
20260506193506 16 52 9.7 16.1 0.00 0.51 0.51 92 1009.9
20260506193005 16 54 9.7 16.1 0.00 0.51 0.51 92 1009.8
20260506192505 16 55 9.7 14.5 0.00 0.51 0.51 92 1009.7
20260506192005 16 59 11.3 14.5 0.00 0.51 0.51 92 1009.6
20260506191506 16 63 11.3 14.5 0.00 0.51 0.51 92 1009.6
20260506191005 16 62 11.3 17.7 0.00 0.51 0.51 92 1009.5
20260506190505 16 57 11.3 17.7 0.00 0.51 0.51 91 1009.4
20260506190006 16 55 8.0 17.7 0.00 0.51 0.51 90 1009.4
20260506185506 16 54 8.0 12.9 0.00 0.51 0.51 89 1009.4
20260506185006 16 48 8.0 12.9 0.00 0.51 0.51 88 1009.3
20260506184505 16 47 8.0 12.9 0.00 0.51 0.51 87 1009.2
20260506184005 16 53 8.0 12.9 0.00 0.51 0.51 87 1009.1
20260506183505 16 55 8.0 14.5 0.00 0.51 0.51 87 1009.0
20260506183006 16 54 11.3 16.1 0.00 0.51 0.51 86 1009.0
20260506182506 16 54 12.9 16.1 0.00 0.51 0.51 86 1009.0
20260506182006 17 57 12.9 16.1 0.00 0.51 0.51 86 1008.8
20260506181505 17 57 9.7 14.5 0.00 0.51 0.51 86 1008.7
20260506181006 17 60 9.7 16.1 0.00 0.51 0.51 86 1008.8
20260506180506 17 64 11.3 16.1 0.00 0.51 0.51 86 1008.7
20260506175505 17 60 8.0 17.7 0.00 0.51 0.51 84 1008.6
20260506175005 18 60 6.4 12.9 0.00 0.51 0.51 84 1008.5
20260506174006 18 70 11.3 17.7 0.00 0.51 0.51 81 1008.4
20260506173506 18 72 11.3 17.7 0.00 0.51 0.51 83 1008.5
20260506173006 18 66 9.7 17.7 0.00 0.51 0.51 83 1008.5
20260506172505 18 61 11.3 16.1 0.00 0.51 0.51 85 1008.5
20260506171506 18 66 11.3 16.1 0.00 0.51 0.51 86 1008.3
20260506171006 18 72 14.5 20.9 0.00 0.51 0.51 86 1008.3
20260506170506 18 72 16.1 20.9 0.00 0.51 0.51 86 1008.2
20260506170005 18 72 16.1 22.5 0.00 0.51 0.51 87 1008.1
20260506165005 18 55 16.1 24.1 0.00 0.51 0.51 86 1008.2
20260506164506 18 51 11.3 20.9 0.00 0.51 0.51 84 1008.2
20260506163506 18 339 6.4 16.1 0.03 0.51 0.51 80 1008.3
20260506163006 18 344 4.8 11.3 0.03 0.51 0.51 82 1008.3
20260506162505 18 56 9.7 24.1 0.03 0.51 0.51 83 1008.3
20260506162005 18 80 12.9 24.1 0.03 0.51 0.51 84 1008.2
20260506161506 18 76 11.3 22.5 0.03 0.51 0.51 80 1008.3
20260506161006 18 54 9.7 14.5 0.03 0.51 0.51 80 1008.0
20260506160505 17 42 11.3 16.1 0.03 0.51 0.51 81 1007.9
20260506160005 17 39 12.9 20.9 0.03 0.51 0.51 81 1008.1
20260506155506 17 34 12.9 20.9 0.03 0.51 0.51 81 1008.1
20260506154005 18 5 8.0 22.5 0.00 0.48 0.48 80 1008.5
20260506153506 20 58 11.3 22.5 0.00 0.48 0.48 82 1008.2
20260506152506 20 71 20.9 32.2 0.00 0.48 0.48 84 1007.5
20260506152006 20 66 17.7 25.7 0.00 0.48 0.48 83 1007.5
20260506150005 21 91 12.9 17.7 0.00 0.48 0.48 78 1007.7
20260506145505 21 101 8.0 17.7 0.00 0.48 0.48 71 1007.8
20260506145006 21 110 3.2 12.9 0.00 0.48 0.48 75 1007.8
20260506144505 21 107 6.4 17.7 0.00 0.48 0.48 73 1007.9
20260506144006 21 107 8.0 17.7 0.00 0.48 0.48 75 1008.1
20260506143505 21 114 6.4 12.9 0.00 0.48 0.48 74 1008.2
20260506142505 21 105 12.9 24.1 0.00 0.48 0.48 78 1008.1
20260506142005 20 91 14.5 24.1 0.00 0.48 0.48 81 1008.2
20260506141506 20 90 14.5 20.9 0.00 0.48 0.48 83 1008.2
20260506140505 21 89 12.9 20.9 0.00 0.48 0.48 85 1008.4
20260506140005 20 90 14.5 20.9 0.00 0.48 0.48 83 1008.6
20260506135506 20 99 12.9 19.3 0.00 0.48 0.48 83 1008.5
20260506135006 20 100 14.5 22.5 0.00 0.48 0.48 85 1008.7
20260506134506 20 95 16.1 22.5 0.00 0.48 0.48 85 1008.7
20260506134005 20 92 16.1 22.5 0.00 0.48 0.48 85 1008.7
20260506133505 20 99 16.1 22.5 0.00 0.48 0.48 85 1008.8
20260506133005 20 100 16.1 24.1 0.00 0.48 0.48 86 1008.8
20260506132505 20 100 17.7 24.1 0.00 0.48 0.48 87 1008.9
20260506132005 20 105 17.7 27.4 0.00 0.48 0.48 87 1008.9
20260506131505 20 103 16.1 27.4 0.00 0.48 0.48 87 1009.0
20260506131005 20 105 16.1 24.1 0.00 0.48 0.48 86 1008.9
20260506130005 20 104 16.1 22.5 0.00 0.48 0.48 85 1008.9
20260506125506 20 103 14.5 22.5 0.00 0.48 0.48 85 1009.0
20260506125005 20 101 16.1 27.4 0.00 0.48 0.48 88 1009.1
20260506124005 19 99 17.7 24.1 0.00 0.48 0.48 88 1009.0
20260506123505 19 92 19.3 27.4 0.00 0.48 0.48 89 1008.9
20260506123005 18 96 22.5 32.2 0.05 0.48 0.48 90 1009.0
20260506122505 18 101 24.1 32.2 0.15 0.48 0.48 91 1009.0
20260506122005 18 99 25.7 33.8 0.18 0.48 0.48 92 1009.0
20260506121505 18 98 25.7 33.8 0.23 0.48 0.48 91 1008.9
20260506121005 18 98 25.7 32.2 0.25 0.48 0.48 93 1008.9
20260506120505 18 101 24.1 32.2 0.25 0.48 0.48 93 1008.9
20260506120005 17 101 24.1 30.6 0.25 0.48 0.48 93 1008.9
20260506115506 17 94 25.7 33.8 0.25 0.48 0.48 93 1008.8
20260506115006 17 90 29.0 40.2 0.25 0.48 0.48 93 1008.9
20260506114505 17 90 33.8 46.7 0.25 0.48 0.48 93 1008.7
20260506114005 17 88 35.4 46.7 0.25 0.48 0.48 93 1008.7
20260506113005 17 104 22.5 40.2 0.18 0.41 0.41 92 1009.1
20260506112006 17 87 17.7 25.7 0.08 0.30 0.30 91 1009.7
20260506111006 17 80 9.7 16.1 0.00 0.23 0.23 91 1010.0
20260506110005 17 87 14.5 20.9 0.00 0.23 0.23 91 1010.0
20260506105505 17 89 17.7 24.1 0.00 0.23 0.23 91 1010.0
20260506105005 17 88 19.3 25.7 0.00 0.23 0.23 90 1010.0
20260506104505 17 91 20.9 29.0 0.00 0.23 0.23 90 1009.9
20260506104005 17 90 20.9 29.0 0.00 0.23 0.23 90 1009.8
20260506103505 17 90 19.3 25.7 0.00 0.23 0.23 89 1009.8
20260506103006 17 93 20.9 25.7 0.00 0.23 0.23 89 1009.8
20260506102505 17 96 20.9 27.4 0.00 0.23 0.23 88 1010.0
20260506102005 17 102 20.9 29.0 0.00 0.23 0.23 88 1010.1
20260506101505 17 102 20.9 29.0 0.00 0.23 0.23 88 1010.2
20260506100505 17 99 20.9 27.4 0.00 0.23 0.23 88 1010.1
20260506100005 17 93 20.9 27.4 0.00 0.23 0.23 88 1010.0
20260506095505 17 91 20.9 27.4 0.00 0.23 0.23 89 1010.0
20260506095005 17 97 19.3 27.4 0.00 0.23 0.23 89 1010.1
20260506094505 17 95 20.9 27.4 0.00 0.23 0.23 89 1010.1
20260506094005 17 90 20.9 27.4 0.00 0.23 0.23 90 1010.0
20260506093506 17 94 20.9 30.6 0.00 0.23 0.23 90 1010.1
20260506093005 17 98 20.9 30.6 0.00 0.23 0.23 90 1010.1
20260506092005 17 87 20.9 25.7 0.00 0.23 0.23 90 1010.0
20260506091506 16 83 20.9 25.7 0.00 0.23 0.23 90 1010.0
20260506091006 17 81 20.9 27.4 0.00 0.23 0.23 90 1010.0
20260506090505 17 81 19.3 27.4 0.00 0.23 0.23 90 1009.9
20260506090005 17 83 17.7 24.1 0.00 0.23 0.23 91 1009.9
20260506085006 16 87 17.7 27.4 0.00 0.28 0.23 91 1010.0
20260506084506 16 84 17.7 22.5 0.00 0.30 0.23 91 1010.0
20260506084006 16 83 17.7 22.5 0.00 0.33 0.23 91 1010.0
20260506083006 16 81 17.7 22.5 0.00 0.38 0.23 92 1009.9
20260506082505 16 88 16.1 22.5 0.00 0.41 0.23 92 1009.7
20260506082005 16 92 14.5 20.9 0.00 0.43 0.23 92 1009.9
20260506081005 16 90 17.7 20.9 0.00 0.46 0.23 92 1010.1
20260506073505 16 98 19.3 24.1 0.00 0.69 0.23 92 1009.8
20260506073006 16 99 19.3 25.7 0.00 0.71 0.23 93 1009.8
20260506072505 16 95 19.3 25.7 0.00 0.74 0.23 93 1009.8
20260506071506 16 85 17.7 25.7 0.00 0.79 0.23 94 1009.8
20260506071006 16 81 16.1 25.7 0.00 0.79 0.23 94 1009.8
20260506062505 15 92 14.5 19.3 0.00 0.84 0.23 95 1010.1
20260506062005 15 91 14.5 19.3 0.00 0.84 0.23 95 1010.1
20260506061505 15 90 12.9 17.7 0.03 0.84 0.23 95 1010.1
20260506060505 15 90 11.3 14.5 0.03 0.84 0.23 95 1010.3